Weather History for Angleton, TX

Change the Weather History Date:

Wednesday, November 14, 2012

  Actual Average Record
Temperature  
Mean Temperature 52 °F -  
Max Temperature 63 °F 69 °F 84 °F (2005)
Min Temperature 42 °F 53 °F 36 °F (2000)
Degree Days  
Heating Degree Days 12    
Growing Degree Days 2 (Base 50)    
Moisture  
Dew Point 34 °F    
Average Humidity 53    
Maximum Humidity 85    
Minimum Humidity 26    
Precipitation  
Precipitation 0.00 in - - ()
Sea Level Pressure  
Sea Level Pressure 30.33 in    
Wind  
Wind Speed 6 mph (NNE)    
Max Wind Speed 13 mph    
Max Gust Speed 18 mph    
Visibility 9 miles    
Events      
Averages and records for this station are not official NWS values.
T = Trace of Precipitation, MM = Missing Value Source: NWS Daily Summary

Daily Weather History Graph

Daily Weather History Graph

Search for Another Location

Airport:

Trip Planner

Search our weather history database for the weather conditions in past years. The results will help you decide how hot, cold, wet, or windy it might be!

Date:

Astronomy

Nov. 14, 2012 Rise Set
Actual Time 6:44 AM CST 5:27 PM CST
Civil Twilight 6:19 AM CST 5:52 PM CST
Nautical Twilight 5:51 AM CST 6:21 PM CST
Astronomical Twilight 5:23 AM CST 6:49 PM CST
Moon 7:31 AM CST (11/14) 6:21 PM CST (11/14)
Length of Visible Light 11h 32m
Length of Day
10h 42m
New Moon, 1% of the Moon is Illuminated
Nov 14
New Moon
Nov 20
First Quarter
Nov 28
Full
Dec 6
Last Quarter
Dec 13
New

Hourly Weather History & Observations

Time (CST) Temp. Windchill Dew Point Humidity Pressure Visibility Wind Dir Wind Speed Gust Speed Precip Events Conditions
12:53 AM 48.0 °F - 37.0 °F 66% 30.34 in 10.0 mi NNE 5.8 mph - 0.00 in   Partly Cloudy
1:53 AM 48.0 °F - 39.0 °F 71% 30.35 in 10.0 mi NE 4.6 mph - N/A   Overcast
2:53 AM 48.9 °F - 37.0 °F 64% 30.33 in 10.0 mi NE 6.9 mph - N/A   Mostly Cloudy
3:53 AM 48.9 °F - 39.0 °F 69% 30.34 in 10.0 mi North 4.6 mph - N/A   Mostly Cloudy
4:53 AM 50.0 °F - 37.9 °F 63% 30.34 in 10.0 mi NNE 5.8 mph - N/A   Overcast
6:53 AM 51.1 °F - 37.0 °F 59% 30.35 in 10.0 mi NNE 8.1 mph - N/A   Overcast
7:53 AM 52.0 °F - 35.1 °F 53% 30.37 in 10.0 mi NE 8.1 mph - N/A   Overcast
8:53 AM 54.0 °F - 36.0 °F 51% 30.39 in 10.0 mi NNE 8.1 mph - N/A   Overcast
9:53 AM 55.0 °F - 37.0 °F 51% 30.40 in 10.0 mi North 10.4 mph - N/A   Overcast
10:53 AM 57.0 °F - 33.1 °F 40% 30.39 in 10.0 mi NNE 10.4 mph - N/A   Overcast
11:53 AM 59.0 °F - 30.9 °F 35% 30.37 in 10.0 mi NNW 10.4 mph 17.3 mph N/A   Overcast
12:53 PM 63.0 °F - 30.0 °F 29% 30.34 in 3.0 mi North 10.4 mph 18.4 mph N/A   Haze
1:00 PM 62.6 °F - 28.4 °F 27% 30.33 in 2.5 mi North 12.7 mph - N/A   Haze
1:08 PM 62.6 °F - 30.2 °F 30% 30.33 in 10.0 mi NNE 10.4 mph 17.3 mph N/A   Overcast
1:53 PM 63.0 °F - 28.9 °F 28% 30.31 in 10.0 mi North 11.5 mph - N/A   Overcast
2:53 PM 62.1 °F - 27.0 °F 26% 30.30 in 10.0 mi North 11.5 mph - N/A   Overcast
3:53 PM 62.1 °F - 28.9 °F 29% 30.29 in 10.0 mi NNW 6.9 mph - N/A   Overcast
4:53 PM 61.0 °F - 30.0 °F 31% 30.28 in 10.0 mi North 5.8 mph - N/A   Overcast
5:53 PM 53.1 °F - 35.1 °F 50% 30.28 in 10.0 mi Calm Calm - N/A   Clear
6:53 PM 48.0 °F - 35.1 °F 61% 30.29 in 10.0 mi Calm Calm - N/A   Clear
7:53 PM 46.0 °F - 36.0 °F 68% 30.31 in 10.0 mi Calm Calm - N/A   Clear
8:53 PM 44.1 °F - 36.0 °F 73% 30.31 in 10.0 mi Calm Calm - N/A   Clear
9:53 PM 42.1 °F - 36.0 °F 79% 30.31 in 10.0 mi Calm Calm - N/A   Clear
10:53 PM 42.1 °F - 37.0 °F 82% 30.31 in 10.0 mi Calm Calm - N/A   Clear
11:53 PM 42.1 °F 39.2 °F 37.9 °F 85% 30.30 in 9.0 mi North 4.6 mph - N/A   Clear